Location: *
(47.8307°S, 178.3954°E)
Time: 07:51:40
(UTC+00:00)

USA 59 Rocket - Pass Details

Date: 12 August 2024
Orbit: 380 x 1730 km, 63.3° (Epoch: 17 September)

Event Time Altitude Azimuth Distance (km) Brightness Sun altitude
Rises 17:51:15 0° 354° (N) 4,456 4.4 -14.1°
Reaches altitude 10° 17:54:08 10° 360° (N) 3,638 4.1 -13.7°
Maximum altitude 18:02:57 44° 67° (ENE) 2,213 3.4 -12.2°
Drops below altitude 10° 18:12:46 10° 133° (SE) 4,059 4.7 -10.6°
Sets 18:16:09 0° 138° (SE) 5,008 5.1 -10.0°
